[Iaude] MPEC R10: 2017 QA35 [a=1.35,e=0.19,i=29.5,H=23.3]

mpec at mpcdb1.cfa.harvard.edu mpec at mpcdb1.cfa.harvard.edu
Fri Sep 1 10:19:22 EDT 2017


M.P.E.C. 2017-R10                                Issued 2017 Sept. 1, 14:14 UT
 
     The Minor Planet Electronic Circulars contain information on unusual
         minor planets and routine data on comets.  They are published
    on behalf of Division F of the International Astronomical Union by the
          Minor Planet Center, Smithsonian Astrophysical Observatory,
                          Cambridge, MA 02138, U.S.A.

             Prepared using the Tamkin Foundation Computer Network

                              MPC at CFA.HARVARD.EDU
            URL http://www.minorplanetcenter.net/    ISSN 1523-6714


                                   2017 QA35
 
Observations:
     K17Q35A* C2017 08 30.36496 23 14 59.31 +15 43 16.2          20.4 VqER010G96
     K17Q35A  C2017 08 30.37262 23 15 00.51 +15 41 55.9          20.3 VqER010G96
     K17Q35A  C2017 08 30.37683 23 15 01.18 +15 41 12.0          20.7 VqER010G96
     K17Q35A  C2017 08 30.38103 23 15 01.81 +15 40 26.8          20.1 VqER010G96
     K17Q35A KC2017 08 30.92605 23 16 42.63 +14 02 52.7                UER010J95
     K17Q35A KC2017 08 30.92858 23 16 43.06 +14 02 25.0                UER010J95
     K17Q35A KC2017 08 30.93359 23 16 43.90 +14 01 30.5          20.2 GUER010J95
     K17Q35A  C2017 08 31.14861523 17 24.88 +13 22 11.3          20.3 GUER010H01
     K17Q35A  C2017 08 31.15708023 17 26.32 +13 20 37.9          19.8 GUER010H01
     K17Q35A  C2017 08 31.16336723 17 27.42 +13 19 28.2          20.1 GUER010H01
     K17Q35A  C2017 08 31.16878823 17 28.34 +13 18 28.2          20.0 GUER010H01
     K17Q35A  C2017 08 31.18399 23 17 31.12 +13 15 39.6                qER010I52
     K17Q35A  C2017 08 31.18591 23 17 31.43 +13 15 18.4                qER010I52
     K17Q35A  C2017 08 31.18852 23 17 31.87 +13 14 49.9                qER010I52
     K17Q35A  C2017 08 31.19044 23 17 32.20 +13 14 28.6          21.5 VqER010I52
     K17Q35A KC2017 08 31.28194 23 17 46.35 +12 57 23.6          20.7 RqER010734
     K17Q35A KC2017 08 31.28566 23 17 46.97 +12 56 41.7          20.3 RqER010734
     K17Q35A KC2017 08 31.28938 23 17 47.58 +12 56 00.5          20.2 RqER010734
     K17Q35A  C2017 08 31.32973 23 17 55.02 +12 48 33.0          19.0 VqER010G96
     K17Q35A  C2017 08 31.33397 23 17 55.73 +12 47 44.7          19.1 VqER010G96
     K17Q35A  C2017 08 31.33823 23 17 56.35 +12 46 57.0          19.5 VqER010G96
     K17Q35A  C2017 08 31.34246 23 17 57.09 +12 46 09.6                qER010G96
     K17Q35A  C2017 09 01.17349 23 20 36.21 +10 05 07.6                qER010G96
     K17Q35A  C2017 09 01.17464 23 20 36.39 +10 04 54.2          20.1 VqER010G96
     K17Q35A  C2017 09 01.17570 23 20 36.59 +10 04 41.7          20.1 VqER010G96
 
Observer details:
734 Farpoint Observatory.  Observer G. Hug.  0.69-m reflector + CCD.
G96 Mt. Lemmon Survey.  Observers R. G. Matheny, J. A. Johnson.  Measurers
    E. J. Christensen, D. C. Fuls, A. R. Gibbs, A. D. Grauer, J. A. Johnson,
    R. A. Kowalski, S. M. Larson, G. J. Leonard, R. G. Matheny, R. L. Seaman,
    F. C. Shelly.  1.5-m reflector + 10K CCD.
H01 Magdalena Ridge Observatory, Socorro.  Observers W. H. Ryan, E. V. Ryan.
    Measurer W. H. Ryan.  2.4-m f/8.9 reflector + CCD.
I52 Steward Observatory, Mt. Lemmon Station.  Observer R. A. Kowalski.
    Measurers E. J. Christensen, D. C. Fuls, A. R. Gibbs, A. D. Grauer,
    J. A. Johnson, R. A. Kowalski, S. M. Larson, G. J. Leonard, R. G. Matheny,
    R. L. Seaman, F. C. Shelly.  1.0-m reflector + CCD.
J95 Great Shefford.  Observer P. Birtwhistle.  0.40-m f/6.0 Schmidt-Cassegrain
    + CCD.
 
Orbital elements:
2017 QA35                                                Earth MOID = 0.1177 AU
Epoch 2017 Sept. 4.0 TT = JDT 2458000.5                 MPC
M 333.83834              (2000.0)            P               Q
n   0.63091993     Peri.  217.61755     +0.91174902     -0.38542014
a   1.3463353      Node   163.22681     +0.37653470     +0.92240477
e   0.1901639      Incl.   29.47677     -0.16411989     -0.02491491
P   1.56           H   23.3           G   0.15           U   8
Residuals in seconds of arc
170830 G96  0.1-  0.0     170831 H01  0.4+  0.1+    170831 G96  0.1-  0.2+
170830 G96  0.0   0.0     170831 H01  0.3+  0.1+    170831 G96  0.3+  0.3-
170830 G96  0.2+  0.3+    170831 I52  0.3+  1.0-    170831 G96  0.7-  0.0
170830 G96  0.2-  0.8-    170831 I52  0.1+  0.9-    170831 G96  0.2+  0.3+
170830 J95  0.1-  0.2+    170831 I52  0.0   0.5-    170901 G96  0.1+  0.2-
170830 J95  0.1-  0.0     170831 I52  0.1+  0.5-    170901 G96  0.3-  0.1+
170830 J95  0.1-  0.2+    170831 734  0.0   0.1+    170901 G96  0.1-  0.2+
170831 H01  0.4+  0.2+    170831 734  0.2+  0.1-
170831 H01  0.1+  0.3+    170831 734  0.3+  0.5+

Ephemeris:
2017 QA35                a,e,i = 1.35, 0.19, 29                  q = 1.0903
Date    TT    R. A. (2000) Decl.     Delta      r     Elong.  Phase     V
2017 08 02    22 18 53.0 +45 35 12   0.3591  1.2032   113.3    50.7    23.4
...
2017 08 17    22 43 12.1 +38 37 57   0.2343  1.1661   126.1    44.5    22.2
...
2017 08 25    23 00 30.5 +28 16 27   0.1740  1.1485   139.4    35.0    21.2
...
2017 08 31    23 16 54.3 +13 50 11   0.1381  1.1364   155.3    21.7    20.3
2017 09 01    23 19 59.9 +10 40 09   0.1335  1.1345   158.6    19.0    20.2
2017 09 02    23 23 12.5 +07 16 28   0.1294  1.1327   161.9    16.1    20.0
...
2017 09 08    23 45 03.6 -16 38 25   0.1181  1.1222   165.5    13.0    19.7
...
2017 09 16    00 21 33.5 -45 48 36   0.1405  1.1103   135.7    39.2    20.8
...
2017 10 01    01 45 36.3 -68 37 05   0.2385  1.0952   107.1    60.9    22.6

A. U. Tomatic                (C) Copyright 2017 MPC           M.P.E.C. 2017-R10




More information about the Iaude mailing list